Voltar ao catálogo

FENGYUN 1C DEB

AtivoPO
NORAD 32245·DEBRIS·🇨🇳 China

Lançado May 10, 1999 de Taiyuan Satellite Launch Center

Loading…

Próximas Passagens (próximas 24 horas)

TLE

AtualizadoSource: Space-Track

Época: Sep 14, 2026, 01:35 UTC

1 32245U 99025CWT 26257.06599781  .00004633  00000-0  56207-3 0  9997
2 32245  98.6313 118.9350 0088935 185.7374 174.2826 14.81324949701770

Acompanhe FENGYUN 1C DEB em tempo real com AllMySat

Download on the App Store